www.pogodaiklimat.ru

Погода и климат >> Архив погоды >> Россия >> Ханты-Мансийский АО >> Нижневартовск


АРХИВ ПОГОДЫ в Нижневартовске

Время (UTC), дата Ветер
(напр.,м/с)
 
Видим.   Явления Облачность Т
(С)
Тd
(С)
f
(%)
Тe
(С)
Тes
(С)
Комфортность P
(гПа)
Po
(гПа)
Тmin
(С)
Tmax
(С)
R
(мм)
R24
(мм)
S
(см)
18 18.06 штиль 0 20 км 10/0
[Ci sp]
+9.6 +8.0 90 +9 +9 прохладно 999.3 992.8
21 18.06 СВ 3 20 км 10/3 600 м
[Cb calv Ci sp]
+9.8 +6.1 78 +8 +8 прохладно 998.4 991.9
00 19.06 З 2 50 км 6/0
[Ac trans]
+10.2 +7.6 84 +9 +10 по сезону 998.6 992.1
03 19.06 З 3 50 км 10/0
[Ac trans Ci sp]
+12.4 +7.7 73 +11 +14 прохладно 998.9 992.5 +9.2
06 19.06 З 5-10
{11}
50 км 8/5 1170 м
[Cu hum Ac trans]
+13.7 +2.9 48 +12 +14 холодно 1000.1 993.7
09 19.06 З 4-10
{11}
50 км 9/3 1000 м
[Cb calv Ac trans]
+14.1 +3.2 48 +13 +16 холодно 1002.5 996.0
12 19.06 З 4
{10}
50 км 10/0
[Ac trans Ci sp]
+13.5 +2.3 47 +12 +14 холодно 1004.9 998.4
15 19.06 З 2 50 км 3/0
[Ac trans]
+13.4 +2.3 47 +13 +13 прохладно 1007.1 1000.6 +14.8
18 19.06 ЮЗ 1 20 км ясно +6.9 +5.8 93 +6 +6 холодно 1008.5 1001.9
21 19.06 Ю 1 20 км 6/0
[Ac trans]
+6.5 +5.8 95 +5 +5 холодно 1009.4 1002.7
00 20.06 ЮВ 2 50 км 3/0
[Ac trans]
+10.1 +5.0 71 +9 +10 прохладно 1010.3 1003.7
03 20.06 Ю 4 50 км 9/0
[Ac trans Ci sp]
+13.9 +3.8 51 +13 +16 по сезону 1009.9 1003.4 +6.3
06 20.06 Ю 7
{10}
50 км 9/0
[Ac trans]
+16.3 +2.9 41 +15 +17 прохладно 1009.9 1003.4
09 20.06 Ю 5
{10}
50 км 9/3 600 м
[Cb calv Ac trans]
+18.6 +3.8 37 +18 +21 по сезону 1009.0 1002.6
12 20.06 ЮВ 5
{11}
50 км 8/0
[Ac trans Ci sp]
+17.8 +5.9 46 +17 +19 прохладно 1009.0 1002.6
15 20.06 Ю 4 50 км 9/3 600 м
[Cb calv Ac trans]
+16.0 +8.4 61 +15 +15 по сезону 1008.8 1002.3 +19.5
18 20.06 Ю 2 20 км 5/0
[Ac trans]
+13.2 +10.9 86 +12 +12 по сезону 1008.5 1002.0
21 20.06 Ю 2 20 км 8/0
[Ac trans Ci sp]
+11.4 +10.0 91 +10 +10 прохладно 1007.5 1001.0
00 21.06 ЮВ 5 50 км 10/0
[Ac trans Ci sp]
+12.0 +10.9 93 +9 +10 прохладно 1005.9 999.4
03 21.06 Ю 6 8000 м слаб. ливневой дождь 10/6 500 м
[Cb calv Ac As]
+13.5 +12.0 91 +11 +12 прохладно 1004.5 998.0 +11.2 0.0
06 21.06 Ю 7
{11}
50 км {ливн. осадки} 10/8 540 м
[Cb calv As op]
+14.6 +13.3 92 +12 +13 холодно 1001.9 995.4
09 21.06 Ю 7-11
{12}
50 км 10/6 480 м
[Cb calv Ac trans Ci sp]
+17.6 +14.3 81 +17 +17 по сезону 1000.6 994.3
12 21.06 ЮЗ 5
{13}
50 км в посл. час гроза {ливн. осадки} 10/3 600 м
[Cb calv Ac trans Ci sp]
+16.1 +15.2 94 +15 +16 прохладно 1002.2 995.8
15 21.06 З 2 50 км 10/3 600 м
[Sc diur, vesp Ac trans Ci sp]
+15.5 +8.6 63 +15 +16 по сезону 1003.6 997.1 +17.6 10
18 21.06 З 1 20 км 10/3 1000 м
[Sc Ac trans Ci sp]
+11.4 +8.4 82 +11 +11 прохладно 1005.1 998.6
21 21.06 З 2 20 км 8/0
[Ci sp]
+9.0 +8.4 96 +7 +7 холодно 1005.4 998.8
00 22.06 С 3 50 км 3/3 1000 м
[Sc]
+8.7 +6.8 88 +6 +7 холодно 1007.0 1000.4
03 22.06 С 4 50 км 4/3 600 м
[Sc Ci fib]
+11.8 +5.1 63 +10 +13 холодно 1008.0 1001.5 +8.3
06 22.06 С 4 50 км 8/8 800 м
[Sc]
+12.4 +5.0 61 +11 +12 очень
холодно
1009.4 1002.9
09 22.06 С 4 50 км 9/6 900 м
[Sc Ci sp]
+13.8 +5.8 58 +12 +15 холодно 1010.0 1003.5
12 22.06 С 4 50 км 9/8 1050 м
[Sc Ci sp]
+14.3 +4.6 52 +13 +14 холодно 1010.8 1004.3
15 22.06 С 4 50 км 10/0
[Ac trans Ci sp]
+11.9 +4.1 59 +10 +10 холодно 1011.9 1005.3 +14.5
18 22.06 С 2 20 км 4/0
[Ci sp]
+8.7 +5.3 79 +7 +7 холодно 1012.2 1005.5
21 22.06 С 2 20 км 4/0
[Ci sp]
+7.2 +6.1 93 +5 +5 очень
холодно
1011.8 1005.1
00 23.06 С 2 50 км 3/0
[Ci sp]
+8.8 +7.6 92 +7 +8 холодно 1012.2 1005.5
03 23.06 С 3 50 км ясно +12.9 +3.6 53 +12 +18 прохладно 1012.1 1005.5 +5.9
06 23.06 С 4 50 км 4/4 1000 м
[Cu hum]
+15.6 +3.6 45 +15 +20 прохладно 1011.6 1005.0
09 23.06 С 3 50 км 3/3 1000 м
[Cu hum]
+16.8 +4.0 43 +17 +24 прохладно 1010.7 1004.3
12 23.06 З 3 50 км 3/0
[Ac trans]
+18.0 +5.0 42 +18 +21 по сезону 1010.4 1004.0
15 23.06 С 1 50 км ясно +17.6 +4.3 41 +19 +19 тепло 1010.2 1003.8 +18.2
18 23.06 ЮЗ 1 20 км ясно +9.1 +7.7 91 +8 +8 холодно 1010.3 1003.7
21 23.06 Ю 1 20 км ясно +8.1 +7.3 95 +7 +7 холодно 1009.8 1003.2
00 24.06 штиль 0 50 км ясно +12.4 +11.1 92 +12 +14 по сезону 1009.5 1003.0
03 24.06 Ю 2 50 км ясно +18.1 +7.7 51 +19 +26 тепло 1009.2 1002.8 +7.9
06 24.06 ЮЗ 3 50 км 4/0
[Ci fib]
+20.8 +4.6 35 +22 +32 комфорт 1008.0 1001.6
09 24.06 ЮЗ 4 50 км 10/0
[Ci fib]
+23.1 +5.5 32 +23 +30 комфорт 1006.6 1000.3
12 24.06 З 3 50 км 10/0
[Ac trans Ci sp]
+20.3 +8.0 45 +22 +24 комфорт 1007.1 1000.7
15 24.06 ЮЗ 2 50 км в посл. час дождь 10/10 1080 м
[Sc]
+17.3 +13.4 78 +18 +18 по сезону 1007.6 1001.2 +24.2 0.0
18 24.06 ЮЗ 2 20 км {дождь} 10/0
[Ci fib]
+14.1 +13.2 94 +14 +14 по сезону 1007.8 1001.3
21 24.06 З 2 700 м туман 10/0
[Ci fib]
+13.8 +12.9 94 +13 +13 по сезону 1007.9 1001.4
00 25.06 С 2 50 км {туман} 3/0
[Ac trans]
+15.3 +14.2 93 +15 +16 тепло 1008.7 1002.2
03 25.06 СЗ 1 50 км 3/0
[Ac trans]
+18.8 +10.0 57 +21 +28 комфорт 1009.6 1003.2 +12.8
06 25.06 З 3 50 км 3/3 600 м
[Cu med, cong]
+20.6 +7.4 42 +22 +30 комфорт 1010.7 1004.3
09 25.06 З 4 50 км 4/4 600 м
[Cu med, cong]
+21.8 +6.8 38 +23 +27 комфорт 1011.6 1005.3
12 25.06 С 3 50 км 6/3 600 м
[Cu med, cong Ci fib]
+20.8 +7.7 43 +22 +25 комфорт 1012.8 1006.4
15 25.06 С 3 50 км 9/0
[Ac trans Ci fib]
+17.1 +6.5 50 +17 +17 по сезону 1014.4 1008.0 +22.0

 

Местоположение метеостанции Нижневартовск (Ханты-Мансийский АО, Россия): широта 60.92 долгота 76.60 высота над уровнем моря 55 м.

В архиве по умолчанию представлена погода в Нижневартовске за последнюю неделю. Архивные данные за месяц целиком и за предыдущие месяцы, начиная с января 2011 года, Вы можете получить, выбрав интересующий диапазон дат из раскрывающегося списка и нажав кнопку "Ввод!".


*Определитесь, кто Вы:
робот инопланетянин человек

Внимание! Время в таблицах - всемирное. Для получения местного времени необходимо прибавить поправку, которая равна 5 ч.

Смотрите также архив погоды в соседних городах и на ближайших метеорологических станциях:

Погода в Александровском (Томская область, Россия) (88 км)
Погода в Ваховске (Ханты-Мансийский АО, Россия) (117 км)
Погода в Радужном (Ханты-Мансийский АО, Россия) (142 км)
Погода в Угуте (Ханты-Мансийский АО, Россия) (148 км)
Погода в Сургуте (Ханты-Мансийский АО, Россия) (177 км)
Погода в Когалыме (Ханты-Мансийский АО, Россия) (182 км)
Погода в Ларьяке (Ханты-Мансийский АО, Россия) (198 км)
Погода в Среднем Васюгане (Томская область, Россия) (210 км)
Погода в Нефтеюганске (Ханты-Мансийский АО, Россия) (215 км)
Погода в Прохоркино (Томская область, Россия) (222 км)

Пояснения к столбцам:

Ветер - указаны скорость ветра в м/с - средняя за 10 мин, порывы в срок и между сроками (в фигурных скобках) и направление, откуда дует ветер: С - северный, СВ - северо-восточный, В - восточный, ЮВ - юго-восточный, Ю - южный, ЮЗ - юго-западный, З - западный, СЗ - северо-западный.
Видимость - горизонтальная дальность видимости в метрах или километрах. При видимости от 1 до 10 км при отсутствии осадков обычно наблюдается дымка, при ухудшении видимости до 1 км и менее - туман. В сухую погоду видимость может ухудшаться дымом, пылью или мглою.
Явления - указаны атмосферные явления, наблюдавшиеся в срок или в последний час перед сроком; фигурными скобками обозначены явления, наблюдавшиеся между сроками (за 1-3 часа до срока); квадратными скобками обозначены град или гололедные отложения с указанием их диаметра в мм.
Облачность - указаны через наклонную черту общая и нижняя облачность в баллах и высота нижней границы облаков в метрах; квадратными скобками обозначены формы облаков: Ci - перистые, Cs - перисто-слоистые, Cc - перисто-кучевые, Ac - высококучевые, As - высокослоистые, Sc - слоисто-кучевые, Ns - слоисто-дождевые, Cu - кучевые, Cb - кучево-дождевые. Подробнее классификацию облаков см. в Атласе облаков (PDF).
T - Температура воздуха - температура, измеренная на высоте 2 м над землей.
Td - Температура точки росы - температура, при понижении до которой содержащийся в воздухе водяной пар достигнет насыщения.
f - Относительная влажность воздуха - влажноcть воздуха, измеренная на высоте 2 м над землей.
Te - Эффективная температура - температура, которую ощущает одетый по сезону человек в тени. Характеристика душности погоды. При расчете учитывается влияние влажности воздуха и скорости ветра на теплоощущения человека.
Tes - Эффективная температура на солнце - температура, которую ощущает человек, с поправкой на солнечный нагрев. Характеристика знойности погоды. Зависит от высоты солнца над горизонтом, облачности и скорости ветра. Ночью, в пасмурную погоду, а также при ветре 12 м/с и более поправка равна нулю.
P - Атмосферное давление - приведенное к уровню моря атмосферное давление.
Po - Атмосферное давление - измеренное на уровне метеостанции атмосферное давление.
Tmin - Минимальная температура - минимум температуры воздуха на высоте 2 м над землей.
Tmax - Максимальная температура - максимум температуры воздуха на высоте 2 м над землей.
R - Количество осадков - Количество выпавших осадков за период времени, мм. При наведении курсора мыши на число - период времени, за который выпало указанное количество осадков.
R24 - Количество осадков - Количество выпавших осадков за 24 часа, мм.
S - Снежный покров - Высота снежного покрова, см. При наведении курсора мыши на число - состояние снежного покрова и степень покрытия местности в баллах.